星链-36573(STARLINK-36573)

导读 | 豆包AI

STARLINK-36573是美国SpaceX星链计划中的一颗低轨卫星,于2026年1月22日发射升空,隶属于美国太空探索技术公司的星链星座组网项目。星链星座旨在为全球提供高速互联网接入服务,该卫星的发射进一步扩充了星链星座的规模,持续推进全球卫星互联网的覆盖进程。

基本信息
目录编号:
67539
目录名称:
STARLINK-36573
国际标识:
2026-014H
轨道中心:
EARTH
卫星名称:
星链-36573
卫星全名:
星链-36573(STARLINK-36573)
卫星状态:
在轨 (已飞行72 天)
发射日期:
2026-01-22 UTC
国别 :
美国 (US)
星等 :
--
轨道信息
数据来源 国际轨道数据
星历时间: 2026-04-03T23:34:48+0800
8小时前
查看轨道信息
半长轴: 6722.323km
偏心率: 0.0001758
轨道倾角: 97.284°
近地点辐角 48.392°
升交点赤经 339.829°
平近点角 311.749°
近地点: 343.004km
远地点: 345.368km
周期: 91.419分钟
每日圈数: 15.751566
详细信息
固有亮度:
5
最大亮度:
2.5
卫星平台:
Starlink V1.0
覆盖范围:
全球
运营商:
太空探索技术公司
运营商所在国:
美国
制造商(研发单位):
太空探索技术公司
制造商所在国:
美国
使用方式:
暂无
卫星简介
Starlink 计划是 SpaceX 推出的全球卫星互联网项目,通过发射低轨道卫星,为全球尤其是偏远地区提供高速、低延迟的互联网服务。自 2019 年起,Starlink 已部署数千颗卫星,旨在缩小全球数字鸿沟,推动互联网普及。该项目还为军事、航空等行业提供通信支持,带来广泛经济效益。
2D轨道图
3D轨道图
轨道高度分析图
轨道倾角分析图
轨道综合分析图
查看轨道综合分析图